Home   Weather   Sondershausen   Past weeks

Flag for Germany Past Weather in Sondershausen, Thuringia, Germany — Yesterday and Last 2 Weeks

Now
23 °F

Snow. Overcast.


Feels Like: 11 °F
Forecast: 20 / 32 °F
Wind: 13 mph from West

Location: Erfurt-Bindersleben

Current Time: Dec 6, 2016 at 6:48:43 am

Latest Report: Dec 6, 2016 at 6:20 am


Visibility: 1 mi

Pressure: 30.36 "Hg

Humidity: 100%

Dew Point: 23 °F

Location of SondershausenLocation

Past Weather in Sondershausen — Graph

°F

Sondershausen Temperature Yesterday

Maximum temperature yesterday: 30 °F (at 12:50 pm)
Minimum temperature yesterday: 14 °F (at 3:50 am)
Average temperature yesterday: 22 °F

High & Low Weather Summary for the Past Weeks

 TemperatureHumidityPressure
High55 °F (Nov 21, 10:50 pm)100% (Nov 23, 12:50 am)30.54 "Hg (Nov 23, 12:50 am)
Low14 °F (Dec 5, 3:50 am)51% (Nov 21, 10:50 am)29.65 "Hg (Nov 21, 1:20 pm)
Average34 °F89%30.17 "Hg
* Reported Nov 21 5:20 am — Dec 6 5:50 am, Sondershausen, Weather by CustomWeather, © 2016

Note: Actual official high and low records may vary slightly from our data, if they occured in-between our weather recording intervals... More about our weather records

Advertising

Sondershausen Weather History for the Previous 24 Hours

Scroll right to see more
 ConditionsComfort  
Time TempWeatherWind HumidityBarometerVisibility
5:50 am
Tue, Dec 6
23 °FSnow. Overcast.13 mph93%30.36 "Hg1 mi
5:20 am21 °FSnow. Overcast.15 mph100%30.36 "Hg2 mi
4:50 am21 °FSnow. Ice fog.16 mph100%30.36 "Hg3 mi
4:20 am21 °FClear.14 mph93%30.36 "Hg4 mi
3:50 am21 °FClear.7 mph100%30.33 "Hg4 mi
3:20 am21 °FClear.15 mph93%30.33 "Hg4 mi
2:50 am21 °FClear.15 mph100%30.33 "Hg5 mi
2:20 am21 °FClear.15 mph93%30.33 "Hg5 mi
1:50 am23 °FClear.12 mph93%30.33 "Hg10 mi
1:20 am21 °FClear.15 mph93%30.33 "Hg10 mi
12:50 am23 °FClear.15 mph93%30.33 "Hg10 mi
12:20 am23 °FClear.13 mph93%30.33 "Hg10 mi
11:50 pm
Mon, Dec 5
23 °FClear.12 mph93%30.33 "Hg10 mi
11:20 pm23 °FClear.14 mph93%30.33 "Hg10 mi
10:50 pm23 °FClear.12 mph86%30.30 "Hg10 mi
10:20 pm23 °FClear.9 mph86%30.30 "Hg10 mi
9:50 pm23 °FClear.8 mph93%30.30 "Hg10 mi
9:20 pm23 °FClear.8 mph93%30.30 "Hg10 mi
8:50 pm25 °FClear.7 mph86%30.30 "Hg10 mi
8:20 pm25 °FClear.6 mph86%30.30 "Hg10 mi
7:50 pm23 °FClear.8 mph93%30.30 "Hg10 mi
7:20 pm25 °FClear.8 mph93%30.30 "Hg10 mi
6:50 pm27 °FClear.7 mph86%30.30 "Hg10 mi
6:20 pm27 °FClear.6 mph93%30.30 "Hg10 mi
5:50 pm28 °FClear.6 mph93%30.27 "Hg10 mi
5:20 pm28 °FClear.6 mph93%30.27 "Hg10 mi
4:50 pm28 °FClear.2 mph93%30.27 "Hg10 mi
4:20 pm30 °FClear.3 mph86%30.27 "Hg10 mi
3:50 pm30 °FSunny.3 mph86%30.27 "Hg10 mi
3:20 pm30 °FSunny.3 mph93%30.27 "Hg10 mi
2:50 pm30 °FSunny.2 mph93%30.27 "Hg10 mi
2:20 pm30 °FSunny.1 mph93%30.27 "Hg10 mi
1:50 pm27 °FChilly.5 mph93%30.30 "Hg2 mi
1:20 pm30 °FLight fog.5 mph93%30.30 "HgN/A
12:50 pm30 °FSunny.1 mph86%30.30 "Hg10 mi
12:20 pm28 °FPassing clouds.3 mph86%30.30 "HgN/A
11:50 am27 °FSunny.6 mph93%30.30 "Hg10 mi
11:20 am27 °FSunny.5 mph93%30.30 "Hg10 mi
10:50 am25 °FSunny.6 mph93%30.33 "Hg10 mi
10:20 am23 °FLight fog.6 mph93%30.33 "HgN/A
9:50 am21 °FLight fog.6 mph93%30.33 "HgN/A
9:20 am19 °FLight fog.6 mph93%30.33 "HgN/A
8:50 am16 °FLight fog.3 mph93%30.33 "HgN/A
8:20 am14 °FLight fog.7 mph92%30.33 "HgN/A
7:50 am14 °FLight fog.6 mph92%30.33 "HgN/A
7:20 am14 °FLight fog.5 mph92%30.33 "HgN/A
6:50 am14 °FLight fog.6 mph92%30.33 "HgN/A
6:20 am14 °FLight fog.2 mph92%30.33 "HgN/A
Weather by CustomWeather, © 2016

See weather overviewHow to use our weather pages